• Join FlightAware (Why Join?)
  • Login
  • US Flag GB Flag 
20:03 EDT


 

Airport Tracker/Info


-or-


 

Live Flight TrackerFlight Track Log ✈ N210PM ✈ 06-Dec-2013 ✈ KICT - KLNK

Flight Track Log - Related Links

Times and Time Zones

All times are in EST time to prevent confusion due to time zone crossing. See the N210PM flight status page for this flight to view local times or setup timezone preferences in your user account.

Time Position Orientation Groundspeed Altitude Reporting Facility
EST Latitude Longitude Course Direction KTS MPH feet Rate Location/Type
15:52 37.6606 -97.4167 17° North 142 163 2,000  Level Kansas City Center
15:52 37.6828 -97.4081 17° North 147 169 3,900 2,760 Climbing Kansas City Center
15:53 37.7069 -97.3958 22° Northeast 164 189 5,000 1,440 Climbing Kansas City Center
15:53 37.7381 -97.3942 North 237 273 5,400 2,040 Climbing Kansas City Center
15:54 37.7736 -97.3917 North 238 274 7,200 3,660 Climbing Kansas City Center
15:55 37.8431 -97.3892 North 236 272 11,400 3,780 Climbing Kansas City Center
15:56 37.9033 -97.3858 North 211 243 14,900 3,120 Climbing Kansas City Center
15:57 37.9694 -97.3825 North 225 259 17,800 2,220 Climbing Kansas City Center
15:58 38.0372 -97.3794 North 234 269 19,600 1,800 Climbing Kansas City Center
15:59 38.1022 -97.3767 North 243 280 21,500 1,740 Climbing Kansas City Center
16:00 38.1769 -97.3597 10° North 274 315 23,300 1,740 Climbing Kansas City Center
16:01 38.2556 -97.3197 22° Northeast 291 335 25,200 1,620 Climbing Kansas City Center
16:02 38.3369 -97.2786 22° Northeast 298 343 26,800 1,500 Climbing Kansas City Center
16:03 38.4206 -97.2361 22° Northeast 310 357 28,300 1,080 Climbing Kansas City Center
16:04 38.5072 -97.2144 11° North 305 351 29,000 300 Climbing Kansas City Center
16:05 38.5994 -97.1972 North 337 388 29,000  Level Kansas City Center
16:06 38.7053 -97.1767 North 366 421 29,000  Level Kansas City Center
16:07 38.8153 -97.1556 North 379 436 29,000  Level Kansas City Center
16:08 38.9250 -97.1344 North 381 438 29,000  Level Kansas City Center
16:09 39.0217 -97.1164 North 378 435 29,000  Level Kansas City Center
16:10 39.1389 -97.0931 North 377 434 29,000  Level Kansas City Center
16:11 39.2394 -97.0750 North 379 436 29,000 -240 Level Kansas City Center
16:12 39.3406 -97.0550 North 381 438 28,600 -720 Descending Kansas City Center
16:13 39.4564 -97.0322 North 378 435 27,500 -1,260 Descending Kansas City Center
16:14 39.5556 -97.0142 North 376 433 26,100 -1,920 Descending Kansas City Center
16:15 39.6739 -96.9914 North 382 440 23,600 -2,280 Descending Kansas City Center
16:16 39.7731 -96.9714 North 378 435 21,500 -1,920 Descending Kansas City Center
16:17 39.8678 -96.9522 North 363 418 19,600 -1,860 Descending Kansas City Center
16:18 39.9589 -96.9361 North 352 405 17,800 -1,680 Descending Minneapolis Center
16:19 40.0689 -96.9136 North 337 388 16,300 -1,560 Descending Minneapolis Center
16:20 40.1558 -96.8964 North 324 373 14,600 -1,680 Descending Minneapolis Center
16:21 40.1992 -96.8653 29° Northeast 297 342 13,500 -1,560 Descending Minneapolis Center
16:21 40.2369 -96.8803 343° North 304 350 13,000 -1,560 Descending Minneapolis Center
16:22 40.2572 -96.8569 41° Northeast 285 328 12,400 -1,500 Descending Minneapolis Center
16:22 40.3147 -96.8650 354° North 290 334 11,500 -1,440 Descending Minneapolis Center
16:23 40.3397 -96.8403 37° Northeast 279 321 10,800 -1,500 Descending Minneapolis Center
16:23 40.3911 -96.8503 352° North 280 322 10,000 -1,620 Descending Minneapolis Center
16:24 40.4206 -96.8269 31° Northeast 267 307 9,200 -1,380 Descending Minneapolis Center
16:25 40.4636 -96.8356 351° North 269 310 8,600 -1,320 Descending Minneapolis Center
16:25 40.4847 -96.8175 33° Northeast 260 299 8,000 -1,560 Descending Minneapolis Center
16:26 40.5481 -96.8197 358° North 260 299 7,000 -1,380 Descending Minneapolis Center
16:26 40.5469 -96.8058 96° East 246 283 6,800 -1,260 Descending Minneapolis Center
16:27 40.6144 -96.8067 359° North 249 287 5,700 -1,320 Descending Minneapolis Center
16:27 40.6108 -96.7939 110° East 239 275 5,500 -1,200 Descending Minneapolis Center
16:28 40.6769 -96.7942 360° North 239 275 4,500 -1,200 Descending Minneapolis Center
16:28 40.6747 -96.7764 99° East 211 243 4,300 -1,200 Descending Minneapolis Center
16:29 40.7239 -96.7578 16° North 213 245 3,300 -960 Descending Minneapolis Center
16:30 40.7814 -96.7436 11° North 167 192 2,400 -780 Descending Minneapolis Center
16:31 40.8253 -96.7517 352° North 169 194 1,700 -840 Descending Minneapolis Center
16:31 40.8192 -96.7453 142° Southeast 117 135 1,600 -2,040 Descending Minneapolis Center
16:33 40.8500 -96.7500 North  Level FlightAware Approximate